CEST,Max TemperatureF,Mean TemperatureF,Min TemperatureF,Max Dew PointF,MeanDew PointF,Min DewpointF,Max Humidity, Mean Humidity, Min Humidity, Max Sea Level PressureIn, Mean Sea Level PressureIn, Min Sea Level PressureIn, Max VisibilityMiles, Mean VisibilityMiles, Min VisibilityMiles, Max Wind SpeedMPH, Mean Wind SpeedMPH, Max Gust SpeedMPH,PrecipitationIn, CloudCover, Events, WindDirDegrees
2013-4-1,35,32,28,30,27,25,100,85,65,29.86,29.78,29.74,6,5,2,13,9,,0.00,6,Snow,295
2013-4-2,41,34,26,30,27,25,100,80,56,29.92,29.87,29.83,6,6,6,13,4,,0.00,6,,66
2013-4-3,35,30,26,30,26,25,93,81,70,29.92,29.91,29.89,6,6,3,13,7,,0.00,7,Snow,7
2013-4-4,39,34,30,32,29,28,93,82,65,29.92,29.86,29.83,6,6,5,6,4,,0.00,7,,352
2013-4-5,37,35,33,36,33,30,100,93,81,29.83,29.75,29.71,6,4,1,6,3,,0.00,7,,29
2013-4-6,39,36,33,36,34,32,100,92,81,30.09,29.94,29.83,6,5,1,10,4,,0.00,8,Rain-Snow,301
2013-4-7,39,36,33,34,32,30,100,89,70,30.12,30.08,30.04,6,6,5,8,6,,0.00,8,Rain-Snow,306
2013-4-8,48,36,24,30,26,21,100,68,34,30.04,29.87,29.74,6,5,4,10,3,,0.00,4,,113
2013-4-9,51,42,32,39,34,28,93,74,58,29.71,29.69,29.65,6,6,5,9,5,,0.00,6,Rain,105
2013-4-10,55,46,37,43,41,37,100,85,58,29.83,29.73,29.65,6,6,6,17,7,,0.00,6,Rain,216
2013-4-11,60,50,41,48,41,37,93,72,45,29.86,29.75,29.65,6,6,6,18,7,25,0.00,6,Rain,168
2013-4-12,59,52,44,50,45,39,94,76,55,29.80,29.66,29.56,6,6,6,24,9,34,0.00,7,Rain,207
2013-4-13,60,51,42,45,41,37,100,71,42,30.21,30.01,29.83,6,6,5,23,10,,0.00,5,Rain-Thunderstorm,252
2013-4-14,60,50,39,45,41,37,100,72,45,30.36,30.32,30.27,6,6,6,6,3,,0.00,6,,145
2013-4-15,66,54,41,41,38,32,93,58,28,30.33,30.26,30.18,,,,12,5,22,0.00,,,135
2013-4-16,68,56,44,41,38,36,76,51,35,30.21,30.16,30.12,,,,15,7,,0.00,,,144
2013-4-17,69,60,50,54,47,41,82,61,43,30.24,30.18,30.15,6,6,6,7,4,,0.00,3,,157
2013-4-18,77,64,51,55,50,45,94,63,32,30.15,30.05,29.95,,,,14,5,,0.00,,,162
2013-4-19,64,58,50,55,48,39,94,74,54,30.18,30.10,30.01,6,6,6,12,4,,0.00,7,Rain,312
2013-4-20,51,48,44,45,42,41,93,78,67,30.30,30.25,30.21,6,6,6,12,6,20,0.00,8,Rain,9
2013-4-21,68,52,37,50,44,37,100,74,49,30.24,30.10,29.95,6,6,5,13,5,,0.00,3,,51
2013-4-22,68,54,41,55,48,39,100,82,49,30.01,29.97,29.95,6,6,6,10,3,,0.00,5,Rain-Thunderstorm,142
2013-4-23,66,56,46,54,49,45,100,80,52,30.18,30.10,30.01,6,4,2,12,3,,0.00,6,,238
2013-4-24,69,56,42,48,44,41,93,63,37,30.33,30.27,30.21,6,6,6,9,5,,0.00,,,198
2013-4-25,73,62,50,52,48,45,88,63,36,30.30,30.22,30.12,6,6,6,7,3,,0.00,3,,168
2013-4-26,78,66,53,52,48,45,82,54,30,30.12,29.87,29.59,6,6,6,9,4,,0.00,2,,166
2013-4-27,68,60,53,55,53,50,94,76,52,29.65,29.61,29.56,6,6,6,12,5,,0.00,6,Rain-Thunderstorm,9
2013-4-28,51,48,44,50,46,43,100,93,82,30.04,29.87,29.65,6,5,2,15,8,,0.00,8,Rain,303
2013-4-29,59,54,48,54,50,46,100,89,82,30.12,30.03,29.98,6,6,5,6,2,,0.00,8,Rain,342
2013-4-30,64,55,46,52,49,46,100,79,59,30.15,30.10,30.01,6,6,6,10,4,,0.00,6,Rain,41